Temperature
-10 -10 -10 -10 -11 -11 -12 -12 -13 -13 -12 -12 -11 -11 -10 -10 -10 -9 -9 -8 -7 -6 -5 -4 -3 -2 -2 -1 1 2 3 5 7 8 10 11 12 13
-9 -10 -10 -10 -11 -11 -11 -12 -12 -13 -13 -12 -12 -11 -11 -10 -10 -10 -9 -8 -7 -6 -5 -4 -4 -3 -2 -1 -0 1 2 4 6 8 9 11 12 13
-9 -9 -10 -10 -11 -11 -11 -12 -12 -12 -13 -12 -12 -11 -11 -10 -10 -10 -9 -8 -7 -6 -6 -5 -4 -4 -3 -2 -1 0 2 3 5 7 9 10 11 12
-9 -9 -9 -10 -10 -11 -11 -12 -12 -12 -12 -12 -12 -11 -11 -11 -11 -10 -10 -9 -8 -7 -6 -5 -4 -4 -3 -2 -1 -0 1 3 4 6 8 10 11 12
-9 -9 -10 -10 -10 -11 -11 -11 -11 -11 -11 -12 -12 -11 -11 -11 -11 -11 -10 -9 -8 -7 -6 -5 -4 -4 -3 -2 -1 -0 1 3 4 6 8 9 11 11
-9 -9 -10 -10 -10 -11 -11 -11 -11 -11 -11 -11 -12 -12 -12 -11 -11 -11 -11 -9 -8 -7 -6 -5 -4 -4 -3 -2 -1 -0 1 2 4 6 7 9 10 11
-9 -9 -10 -10 -11 -11 -11 -11 -11 -11 -11 -11 -12 -12 -12 -12 -12 -12 -11 -10 -8 -7 -6 -5 -5 -4 -3 -2 -1 -0 1 2 4 5 7 8 10 11
-9 -9 -10 -10 -11 -11 -11 -11 -11 -11 -11 -11 -12 -12 -12 -12 -12 -12 -12 -11 -11 -8 -8 -6 -5 -4 -2 -2 -1 0 1 2 4 5 7 8 9 11
-9 -10 -10 -11 -11 -10 -10 -11 -11 -11 -11 -12 -12 -12 -12 -12 -12 -12 -11 -11 -11 -9 -9 -6 -4 -3 -2 -1 -1 0 1 3 4 5 6 8 9 10
-9 -10 -10 -10 -10 -10 -10 -10 -11 -11 -12 -12 -12 -12 -12 -12 -11 -11 -11 -11 -10 -9 -9 -8 -4 -3 -2 -1 -0 1 2 3 4 5 6 8 9 10
-9 -10 -10 -10 -10 -9 -10 -11 -11 -11 -12 -12 -12 -12 -12 -12 -12 -11 -11 -11 -11 -9 -8 -8 -5 -3 -2 -1 0 1 2 3 4 5 6 7 9 10
-9 -10 -10 -10 -10 -10 -11 -11 -12 -11 -12 -12 -12 -12 -12 -12 -12 -12 -12 -12 -12 -10 -8 -8 -6 -5 -2 -0 0 1 2 3 4 5 6 7 9 9
-10 -10 -10 -10 -10 -11 -11 -11 -11 -11 -12 -12 -12 -12 -12 -12 -12 -12 -12 -12 -11 -10 -8 -8 -6 -5 -3 -1 1 2 2 3 4 5 6 7 8 9
-10 -10 -10 -10 -11 -11 -11 -11 -12 -12 -12 -12 -13 -13 -12 -12 -12 -11 -11 -11 -10 -9 -8 -8 -7 -5 -4 -2 0 2 3 3 4 5 6 7 8 9
-10 -10 -10 -10 -11 -11 -11 -12 -12 -12 -12 -13 -13 -13 -12 -12 -12 -11 -10 -10 -9 -8 -7 -6 -6 -5 -4 -3 -1 1 2 4 4 5 6 7 8 9
-9 -9 -10 -10 -10 -11 -11 -11 -12 -12 -13 -13 -13 -13 -12 -12 -11 -11 -10 -9 -8 -7 -6 -6 -5 -4 -3 -2 -1 1 2 3 4 5 6 7 8 9
-10 -9 -9 -10 -10 -10 -11 -11 -11 -12 -12 -12 -12 -12 -12 -12 -11 -10 -10 -9 -8 -7 -5 -5 -4 -4 -3 -2 -1 0 2 3 4 5 6 7 8 9
-9 -9 -10 -10 -10 -11 -11 -11 -11 -12 -12 -12 -12 -12 -12 -12 -11 -10 -9 -9 -8 -6 -5 -4 -4 -3 -3 -2 -1 1 2 3 4 5 6 7 8 9
-9 -9 -10 -10 -10 -11 -11 -11 -11 -11 -12 -12 -12 -12 -12 -11 -11 -10 -9 -8 -7 -6 -5 -4 -3 -3 -2 -1 1 1 2 3 4 5 6 7 9 9
-9 -9 -10 -10 -10 -11 -11 -11 -11 -11 -11 -11 -12 -12 -12 -11 -11 -10 -10 -9 -8 -6 -4 -3 -3 -2 -2 -1 0 2 3 4 4 5 7 8 9 9
-9 -9 -10 -10 -10 -11 -11 -11 -11 -11 -11 -11 -11 -12 -11 -11 -11 -10 -9 -8 -7 -6 -4 -3 -2 -2 -1 -1 0 2 3 4 5 6 7 7 8 9
-9 -9 -9 -10 -10 -10 -11 -11 -11 -11 -11 -11 -11 -11 -11 -11 -11 -10 -9 -8 -7 -6 -4 -3 -2 -1 -1 -0 1 2 3 4 5 6 7 8 9 9
-9 -9 -9 -10 -10 -10 -10 -11 -11 -11 -11 -11 -11 -11 -11 -11 -11 -10 -9 -8 -7 -6 -4 -3 -2 -1 -1 0 1 2 3 4 5 6 7 8 9 10
Wind_Speed
11 12 11 11 10 10 10 10 11 17 19 14 11 9 11 14 21 19 17 23 25 24 23 22 21 21 22 23 23 22 21 20 17 17 16 17 20 24
10 12 13 12 11 11 10 10 11 14 17 15 14 13 13 15 22 18 18 25 24 23 22 22 21 21 22 23 23 23 22 21 19 18 18 17 18 21
13 14 16 16 13 12 11 11 11 12 16 16 14 12 13 13 14 14 16 14 15 21 22 22 22 22 23 23 23 24 23 22 21 19 18 18 16 18
16 16 18 16 16 13 11 12 12 12 14 18 16 12 13 12 12 12 12 13 11 20 22 22 23 23 24 24 24 24 24 22 21 20 19 18 16 15
16 17 17 16 16 13 13 13 12 13 13 15 16 12 11 10 11 12 12 10 12 15 19 20 22 23 23 24 24 24 23 23 22 21 18 16 15 14
14 14 14 14 15 14 13 14 13 13 13 12 13 13 11 9 8 10 12 9 10 12 15 16 18 21 23 24 24 23 23 22 22 21 18 15 13 13
10 11 12 16 18 15 13 11 10 11 10 11 12 12 11 9 9 9 12 11 11 10 8 9 9 9 11 17 20 21 21 22 21 21 19 16 13 13
9 10 11 13 17 21 23 22 19 13 10 11 12 12 12 11 10 11 11 11 8 4 5 10 8 10 9 9 17 21 20 21 21 20 19 16 14 14
9 9 11 12 17 12 19 22 18 21 20 14 13 13 13 12 12 13 12 12 12 8 8 10 7 9 9 12 19 21 20 20 20 20 18 16 15 15
9 9 10 11 15 17 13 9 9 11 15 12 11 13 13 13 13 13 12 12 11 9 8 7 6 7 9 9 17 20 20 20 20 19 19 17 15 15
9 9 11 11 21 23 10 8 10 10 14 17 19 18 20 19 15 9 7 8 10 7 5 5 5 6 7 8 12 19 20 20 20 20 19 17 16 15
7 8 15 18 22 20 9 8 12 11 8 10 13 15 13 14 17 9 7 8 8 6 4 4 4 4 4 4 6 8 12 17 20 20 19 17 15 12
7 7 10 21 21 20 17 10 15 14 8 10 10 10 9 8 8 8 8 8 9 9 5 3 4 3 4 4 4 6 8 8 11 14 17 17 17 16
7 7 10 19 19 19 15 17 21 17 9 9 10 10 9 9 8 9 10 10 12 14 10 7 5 4 4 4 4 4 6 8 9 10 10 14 16 18
6 13 15 18 17 13 17 20 16 10 10 10 10 10 10 9 9 9 9 9 12 13 14 16 14 11 9 7 5 4 4 6 9 9 10 11 12 12
6 9 14 15 13 14 14 12 10 10 11 10 11 10 10 9 9 8 8 8 7 7 10 14 15 15 12 12 10 9 5 5 8 10 10 9 10 11
5 4 5 7 8 8 8 8 8 9 10 10 10 11 11 11 10 9 8 7 5 6 6 5 10 12 14 10 8 10 8 6 7 10 11 11 11 12
5 4 6 7 9 9 10 10 9 10 10 10 10 11 11 11 11 10 9 8 8 7 7 5 4 5 7 10 14 11 9 8 7 10 10 10 12 11
3 4 6 7 8 9 9 9 9 10 9 9 10 10 11 11 11 11 10 9 9 8 7 6 4 4 6 6 7 13 9 7 8 10 11 9 10 13
3 4 5 7 8 8 8 9 9 9 9 9 9 9 10 11 11 11 10 11 10 9 8 6 4 5 6 5 3 4 10 9 9 10 9 6 7 12
4 5 5 6 7 7 8 8 8 9 9 9 8 9 10 10 10 11 11 15 11 8 9 7 7 9 6 3 3 3 4 8 11 9 9 10 10 10
4 5 6 6 7 7 7 8 8 8 9 8 8 9 9 10 11 12 12 11 10 10 10 9 9 5 3 5 5 4 3 3 5 8 9 9 9 11
4 5 6 6 6 6 7 7 8 8 8 7 8 9 9 10 10 10 11 11 11 11 10 8 6 3 1 2 3 3 4 6 6 7 5 8 14 21
Wind_Direction
267 268 269 271 267 263 263 266 279 295 299 301 300 293 298 302 303 306 306 303 300 297 292 287 279 271 265 263 264 266 270 271 273 276 270 259 243 225
269 269 270 271 268 266 263 263 264 275 287 293 295 295 297 302 304 308 305 303 301 297 290 284 277 271 265 261 260 262 264 266 267 270 266 261 247 230
274 272 273 273 272 268 265 265 267 270 279 288 289 291 290 293 297 297 297 295 294 294 288 282 276 271 266 262 258 257 258 260 261 264 265 260 254 237
277 277 277 277 272 268 265 265 267 268 273 284 290 291 289 290 291 293 299 298 294 290 286 280 275 270 264 259 256 253 253 256 258 260 262 259 256 248
277 279 280 278 274 269 263 264 267 272 271 279 287 290 288 287 290 293 292 288 290 289 287 280 272 267 264 257 254 250 247 248 250 253 260 262 257 254
276 277 278 276 274 268 266 263 266 272 274 279 287 290 288 284 283 294 298 292 290 291 284 278 272 267 263 258 253 251 245 243 245 248 252 254 253 250
279 278 282 289 289 285 279 272 268 274 279 285 288 290 290 293 291 291 293 295 291 276 278 279 278 272 266 261 255 252 244 238 238 241 246 248 247 244
287 289 292 294 295 299 299 296 293 293 293 287 290 287 287 286 286 285 286 289 292 281 305 296 283 272 261 251 249 248 243 236 233 234 239 241 240 238
286 293 302 303 306 291 288 291 293 296 297 294 288 285 286 283 279 278 273 270 268 273 293 288 267 264 259 250 247 243 242 236 230 230 231 233 232 231
281 284 288 289 294 295 288 278 266 275 284 286 276 277 277 275 268 267 269 271 270 265 251 267 271 264 261 250 250 243 239 234 226 224 225 227 227 226
283 287 297 292 301 316 327 303 296 290 298 302 304 304 304 306 302 293 281 277 282 276 230 242 269 273 261 248 241 238 234 229 223 221 219 219 219 220
289 293 311 315 319 332 332 311 307 304 303 305 307 306 301 298 300 293 280 273 274 278 243 252 271 283 278 243 223 224 225 224 219 218 216 213 211 213
308 309 310 320 329 335 335 320 317 330 322 306 304 301 296 286 280 272 258 253 252 252 260 289 285 281 279 285 245 217 209 206 209 214 212 209 206 205
308 306 310 327 335 336 333 329 336 337 319 312 313 311 309 302 293 282 268 254 247 249 249 242 255 268 288 288 268 223 212 200 195 198 201 203 206 208
307 321 330 334 336 331 329 336 339 328 319 321 318 315 310 301 298 293 283 268 256 249 245 236 237 245 249 255 272 260 215 202 193 191 191 198 199 199
314 324 334 336 335 331 332 331 327 321 325 321 316 314 314 312 310 307 304 300 284 265 242 232 228 227 235 242 249 260 247 210 194 191 188 195 194 195
327 326 326 330 331 328 327 327 326 327 328 325 322 323 323 323 321 320 311 308 290 289 286 250 228 223 228 234 240 244 239 228 206 190 186 193 193 189
345 327 328 329 328 327 328 328 327 329 328 327 326 326 325 325 323 323 321 315 306 296 287 276 244 214 217 234 230 239 236 219 204 191 185 187 187 179
335 312 316 320 320 321 321 321 321 322 322 324 325 326 327 326 326 327 327 324 317 307 294 279 252 220 215 227 224 218 219 210 196 192 187 182 178 170
296 300 308 314 316 318 320 320 320 321 325 326 325 326 327 327 327 327 326 323 320 315 307 293 262 239 226 227 233 223 216 208 198 188 179 166 150 138
295 299 303 310 313 314 315 316 316 319 322 325 325 327 328 328 328 327 324 325 325 318 313 302 283 278 257 238 230 226 218 212 197 181 167 161 154 150
285 295 301 306 310 311 312 314 316 319 323 326 326 327 327 327 328 327 328 327 324 318 309 298 293 281 215 213 210 200 188 179 177 170 168 168 162 159
279 291 298 305 307 308 310 313 316 319 322 326 327 328 329 331 329 328 328 327 325 324 324 320 320 312 249 222 199 175 158 156 146 134 121 121 114 112
Height
1446 1442 1437 1433 1429 1425 1421 1416 1410 1399 1389 1385 1381 1377 1374 1370 1365 1361 1357 1354 1353 1352 1352 1353 1355 1357 1360 1362 1365 1369 1373 1378 1383 1389 1396 1402 1409 1416
1439 1434 1430 1425 1420 1416 1413 1409 1404 1397 1386 1379 1375 1371 1368 1364 1360 1356 1351 1349 1347 1346 1347 1348 1349 1351 1353 1356 1359 1362 1366 1370 1376 1382 1389 1396 1403 1409
1432 1427 1422 1417 1412 1407 1404 1400 1396 1391 1382 1374 1370 1365 1361 1357 1352 1349 1345 1342 1340 1339 1340 1341 1343 1345 1347 1349 1352 1356 1359 1364 1369 1375 1382 1389 1396 1404
1424 1419 1413 1408 1403 1399 1395 1392 1388 1383 1377 1368 1363 1359 1354 1350 1346 1342 1338 1336 1333 1332 1332 1333 1335 1337 1339 1342 1345 1349 1353 1357 1362 1368 1375 1382 1389 1397
1417 1412 1406 1401 1395 1391 1387 1383 1380 1375 1371 1364 1356 1352 1348 1344 1339 1335 1332 1328 1326 1325 1324 1325 1327 1329 1331 1334 1338 1342 1345 1350 1355 1361 1367 1375 1382 1390
1411 1406 1400 1394 1388 1384 1380 1376 1372 1368 1363 1357 1351 1346 1341 1337 1334 1329 1324 1321 1318 1317 1316 1317 1318 1320 1323 1326 1329 1333 1338 1342 1348 1354 1361 1368 1376 1384
1405 1400 1394 1388 1383 1379 1374 1370 1366 1361 1356 1350 1345 1339 1335 1331 1328 1324 1319 1314 1311 1310 1309 1309 1310 1311 1313 1317 1321 1325 1330 1335 1341 1348 1355 1362 1369 1377
1400 1394 1388 1382 1377 1373 1368 1364 1361 1355 1350 1344 1338 1333 1328 1325 1321 1318 1314 1310 1306 1305 1303 1302 1303 1303 1305 1309 1313 1318 1323 1328 1335 1341 1348 1356 1363 1371
1394 1388 1382 1377 1372 1366 1361 1357 1353 1349 1344 1339 1332 1327 1322 1318 1315 1311 1308 1305 1301 1299 1299 1294 1296 1296 1298 1302 1306 1311 1316 1321 1328 1335 1342 1350 1358 1366
1390 1384 1378 1372 1366 1360 1355 1350 1345 1341 1336 1331 1326 1320 1315 1311 1309 1305 1302 1298 1295 1293 1293 1289 1288 1290 1293 1295 1299 1304 1309 1315 1321 1328 1336 1344 1352 1360
1385 1379 1374 1368 1362 1358 1351 1345 1339 1334 1329 1324 1319 1313 1308 1305 1302 1299 1296 1293 1289 1287 1288 1286 1284 1285 1286 1288 1293 1297 1303 1309 1315 1322 1330 1338 1346 1354
1380 1375 1370 1364 1360 1354 1348 1341 1334 1328 1322 1316 1311 1306 1301 1297 1294 1292 1289 1287 1285 1282 1281 1282 1281 1283 1283 1283 1287 1292 1297 1302 1309 1316 1323 1332 1340 1348
1376 1370 1365 1361 1356 1350 1345 1338 1332 1325 1317 1311 1305 1300 1295 1291 1288 1285 1283 1281 1279 1277 1278 1279 1278 1279 1280 1280 1282 1286 1291 1297 1303 1310 1317 1326 1334 1342
1372 1367 1362 1358 1353 1347 1341 1336 1329 1322 1314 1307 1301 1296 1290 1286 1282 1279 1276 1274 1272 1271 1272 1274 1273 1275 1276 1277 1278 1281 1286 1292 1298 1304 1311 1320 1328 1336
1369 1365 1360 1355 1349 1343 1338 1332 1325 1318 1311 1305 1298 1292 1287 1282 1277 1273 1270 1268 1266 1265 1265 1266 1268 1270 1271 1272 1273 1276 1281 1286 1292 1299 1306 1314 1321 1330
1366 1361 1357 1352 1347 1342 1336 1329 1323 1316 1310 1303 1296 1290 1284 1278 1273 1269 1266 1263 1261 1260 1260 1260 1262 1264 1266 1268 1270 1271 1276 1281 1287 1294 1301 1309 1316 1324
1363 1358 1354 1349 1344 1338 1333 1327 1321 1315 1308 1301 1294 1287 1281 1275 1270 1266 1262 1259 1257 1255 1255 1256 1257 1259 1261 1263 1265 1267 1271 1275 1281 1288 1296 1304 1311 1319
1360 1356 1351 1347 1342 1336 1331 1325 1320 1313 1307 1300 1293 1287 1280 1274 1268 1264 1260 1257 1254 1251 1250 1251 1252 1255 1257 1258 1260 1262 1265 1270 1277 1284 1291 1299 1306 1314
1358 1354 1349 1345 1340 1335 1330 1324 1319 1313 1306 1300 1293 1286 1279 1273 1267 1262 1258 1254 1251 1248 1247 1247 1248 1250 1251 1252 1253 1256 1260 1265 1272 1279 1287 1294 1301 1309
1355 1351 1347 1343 1339 1334 1329 1324 1318 1312 1306 1299 1293 1286 1279 1273 1267 1262 1257 1252 1248 1245 1243 1243 1244 1245 1246 1247 1249 1251 1255 1261 1266 1273 1281 1289 1298 1307
1352 1349 1346 1342 1338 1333 1328 1323 1318 1312 1306 1299 1293 1286 1279 1273 1267 1261 1256 1252 1247 1244 1241 1240 1240 1240 1241 1244 1245 1247 1251 1257 1262 1268 1276 1284 1292 1302
1350 1347 1344 1340 1336 1332 1327 1322 1317 1311 1305 1299 1293 1286 1280 1273 1267 1261 1256 1251 1246 1242 1239 1237 1236 1237 1237 1238 1240 1242 1247 1252 1259 1266 1275 1281 1285 1294
1347 1344 1342 1338 1335 1331 1326 1321 1316 1311 1305 1299 1293 1287 1280 1274 1268 1262 1257 1252 1247 1242 1238 1235 1234 1233 1233 1234 1236 1239 1243 1248 1255 1262 1271 1280 1288 1295